[[{"header":{"parameterUnit":"m.s-1","parameterCategory":1,"la1":30.2991,"la2":30.254,"lo1":-89.0895,"lo2":-89.0444,"dy":0.0017,"dx":0.0017,"nx":28,"ny":28,"refTime":"2025-01-29T09:00:00:Z","depth":0,"parameterNumber":2,"parameterNumberName":"U-component_of_WINDS"},"data":[0,0,0,0,0,0,0,0,0,0,0,0,0,0,0,0,0,0,0,0,0,0,0,0,0,0,0,0,0,0,0,0,0,0,0,0,0,0,0,0,0,0,0,0,0,0,0,0,0,0,0,0,0,0,0,0,0,0,-1.1209,-1.1209,0,-1.1258,-1.1258,-1.1259,-1.1284,-1.1284,-1.1285,-1.1285,-1.1333,-1.1334,-1.1335,0,0,0,0,0,0,0,0,0,0,0,0,0,-1.1134,-1.1135,-1.1209,-1.1209,-1.121,-1.1258,-1.1258,-1.1259,-1.1284,-1.1284,-1.1285,-1.1285,-1.1332,-1.1334,-1.1335,0,0,0,0,0,0,0,0,0,0,0,0,0,-1.1173,-1.1136,-1.1208,-1.1228,-1.1231,-1.1258,-1.1258,-1.1259,-1.1284,-1.1284,-1.1285,-1.1285,-1.1332,-1.1334,-1.1335,-1.1346,0,0,-1.1341,-1.1342,0,0,0,0,0,0,0,0,-1.1171,-1.1176,-1.1225,-1.1227,-1.123,-1.1265,-1.125,-1.1288,-1.1284,-1.1264,-1.1285,-1.1285,-1.131,-1.1314,-1.1323,-1.1348,-1.135,-1.1341,-1.1342,-1.1343,-1.1344,0,0,0,0,0,0,0,-1.1168,-1.1174,-1.1228,-1.1225,-1.1228,-1.1234,-1.124,-1.1257,-1.1286,-1.1266,-1.1268,-1.1273,-1.1311,-1.1321,-1.1324,-1.1351,-1.1341,-1.1343,-1.1344,-1.1345,-1.1386,-1.1386,0,0,0,0,0,0,-1.1163,-1.1171,-1.1226,-1.1229,-1.12,-1.1235,-1.1241,-1.1254,-1.1286,-1.1291,-1.1273,-1.1274,-1.1318,-1.1322,-1.1326,-1.134,-1.1343,-1.1345,-1.1346,-1.1386,-1.1386,-1.1386,0,0,0,0,0,0,-1.1161,-1.1167,-1.1224,-1.1201,-1.1209,-1.1236,-1.125,-1.1254,-1.1264,-1.1292,-1.1297,-1.1278,-1.1318,-1.1323,-1.1341,-1.1342,-1.1346,-1.1348,-1.1386,-1.1386,-1.1386,-1.1368,0,0,0,0,0,0,-1.1159,-1.1167,-1.1171,-1.1201,-1.121,-1.1239,-1.125,-1.1255,-1.1268,-1.1269,-1.1297,-1.1302,-1.1318,-1.1338,-1.1343,-1.1345,-1.1349,-1.1387,-1.1386,-1.1386,-1.1369,-1.1367,-1.1366,0,0,0,0,0,-1.1156,-1.1164,-1.1171,-1.1178,-1.1217,-1.1239,-1.1244,-1.1264,-1.1268,-1.1272,-1.129,-1.1301,-1.1341,-1.1339,-1.1345,-1.1347,-1.1387,-1.1386,-1.1386,-1.1369,-1.1368,-1.1366,0,0,0,0,0,0,-1.1133,-1.1168,-1.1177,-1.1195,-1.1214,-1.1244,-1.125,-1.1261,-1.1279,-1.128,-1.1303,-1.1309,-1.1324,-1.1338,-1.1335,-1.1359,-1.1365,-1.1366,-1.135,-1.1349,-1.1347,-1.1344,-1.1351,0,0,0,0,0,-1.113,-1.1146,-1.1176,-1.1189,-1.1198,-1.1222,-1.1233,-1.1246,-1.1266,-1.1274,-1.1293,-1.1312,-1.1329,-1.1339,-1.1356,-1.1371,-1.1377,-1.1375,-1.1374,-1.1373,-1.1373,-1.1382,-1.1381,-1.1386,-1.1386,-1.1386,0,0,-1.1124,-1.1145,-1.1154,-1.1185,-1.1201,-1.1216,-1.1229,-1.1245,-1.1256,-1.1277,-1.1295,-1.1309,-1.1331,-1.1347,-1.1355,-1.1359,-1.1373,-1.1373,-1.1372,-1.1373,-1.1381,-1.1381,-1.138,-1.1386,-1.1386,-1.1386,0,0,-1.1122,-1.1139,-1.1152,-1.1168,-1.1193,-1.1209,-1.1212,-1.124,-1.125,-1.1269,-1.1284,-1.1298,-1.1326,-1.1341,-1.1353,-1.1355,-1.1366,-1.136,-1.1354,-1.1361,-1.1361,-1.136,-1.1361,-1.1361,-1.136,-1.136,-1.136,0,-1.1111,-1.1136,-1.1157,-1.1172,-1.1185,-1.1204,-1.1217,-1.1231,-1.126,-1.1268,-1.1271,-1.1307,-1.1324,-1.1343,-1.1344,-1.1352,-1.1356,-1.1357,-1.1359,-1.1359,-1.1359,-1.136,-1.136,-1.1359,-1.1359,-1.1359,-1.136,0,-1.1121,-1.1138,-1.1145,-1.1173,-1.1186,-1.12,-1.1222,-1.1233,-1.1245,-1.126,-1.1278,-1.1299,-1.132,-1.1325,-1.1337,-1.1346,-1.1348,-1.1355,-1.1362,-1.1358,-1.1359,-1.1359,-1.1358,-1.1358,-1.1359,-1.1359,0,0,-1.1106,-1.1145,-1.1147,-1.116,-1.1189,-1.1202,-1.1216,-1.1237,-1.1246,-1.1264,-1.1277,-1.13,-1.1307,-1.132,-1.1333,-1.134,-1.134,-1.1346,-1.1347,-1.1344,-1.1351,-1.1345,-1.1345,-1.1347,-1.1347,-1.1347,-1.1349,0,-1.1107,-1.1135,-1.1154,-1.1173,-1.1189,-1.1207,-1.1219,-1.1237,-1.1252,-1.1266,-1.1282,-1.1298,-1.1306,-1.1314,-1.1321,-1.1338,-1.1341,-1.1338,-1.1358,-1.1358,-1.1352,-1.1346,-1.134,-1.1341,-1.1349,-1.1349,-1.135,0,-1.1113,-1.1132,-1.1153,-1.1179,-1.1186,-1.1197,-1.1218,-1.1232,-1.1252,-1.1262,-1.1277,-1.129,-1.1305,-1.131,-1.133,-1.1327,-1.1336,-1.1346,-1.1346,-1.1349,-1.1354,-1.1348,-1.1342,-1.1342,-1.135,-1.135,-1.135,0,-1.11,-1.113,-1.1147,-1.1157,-1.1188,-1.1195,-1.1208,-1.1229,-1.124,-1.1258,-1.1266,-1.1285,-1.1295,-1.1309,-1.1327,-1.1329,-1.1345,-1.1352,-1.1354,-1.1353,-1.1356,-1.1356,-1.1351,-1.1362,-1.1362,-1.1362,-1.1362,0,-1.1099,-1.1111,-1.1141,-1.1151,-1.1165,-1.1186,-1.1199,-1.1214,-1.1232,-1.1244,-1.1261,-1.1272,-1.1296,-1.1309,-1.1323,-1.1338,-1.1342,-1.135,-1.1354,-1.1349,-1.1348,-1.1355,-1.1356,-1.1362,-1.1362,-1.1362,-1.1362,0,-1.1087,-1.1107,-1.1127,-1.1155,-1.1162,-1.1171,-1.1194,-1.1204,-1.1219,-1.1235,-1.124,-1.1264,-1.1281,-1.13,-1.1323,-1.1333,-1.1346,-1.1351,-1.1339,-1.1341,-1.1342,-1.1342,-1.1342,-1.1343,-1.1353,-1.1353,-1.1352,0,-1.1086,-1.1095,-1.1124,-1.1134,-1.1147,-1.1163,-1.1175,-1.1196,-1.1207,-1.1231,-1.1238,-1.1257,-1.1273,-1.1299,-1.1318,-1.1335,-1.1341,-1.134,-1.1344,-1.1338,-1.1341,-1.134,-1.1341,-1.1339,-1.1338,-1.1338,-1.1338,0,-1.1081,-1.109,-1.1107,-1.1127,-1.1141,-1.1158,-1.1175,-1.1182,-1.1206,-1.1218,-1.1236,-1.1248,-1.1272,-1.129,-1.131,-1.1323,-1.1334,-1.1337,-1.1338,-1.1333,-1.1326,-1.133,-1.1336,-1.1337,-1.1337,-1.1337,-1.1337,-1.1337,-1.1074,-1.1083,-1.1105,-1.1123,-1.1138,-1.1154,-1.1165,-1.1181,-1.1197,-1.1219,-1.1229,-1.1247,-1.1267,-1.1295,-1.1307,-1.1321,-1.1324,-1.1326,-1.1327,-1.1327,-1.1326,-1.1323,-1.1324,-1.1324,-1.1325,-1.1325,-1.1325,0,-1.107,-1.1085,-1.1101,-1.1125,-1.1139,-1.1149,-1.1168,-1.1179,-1.1195,-1.1212,-1.1228,-1.1248,-1.1265,-1.1285,-1.1303,-1.131,-1.1316,-1.1314,-1.1314,-1.1317,-1.1321,-1.1318,-1.131,-1.131,-1.131,-1.131,-1.131,-1.131,-1.107,-1.1086,-1.1098,-1.1121,-1.1136,-1.1154,-1.1164,-1.1178,-1.1193,-1.1215,-1.1229,-1.1242,-1.1261,-1.128,-1.1296,-1.1302,-1.1308,-1.1305,-1.1311,-1.1315,-1.1316,-1.1318,-1.1315,-1.1306,-1.1306,-1.1306,-1.1306,-1.1306]},{"header":{"parameterUnit":"m.s-1","parameterCategory":1,"la1":30.2991,"la2":30.254,"lo1":-89.0895,"lo2":-89.0444,"dy":0.0017,"dx":0.0017,"nx":28,"ny":28,"refTime":"2025-01-29T09:00:00:Z","depth":0,"parameterNumber":3,"parameterNumberName":"V-component_of_WINDS"},"data":[0,0,0,0,0,0,0,0,0,0,0,0,0,0,0,0,0,0,0,0,0,0,0,0,0,0,0,0,0,0,0,0,0,0,0,0,0,0,0,0,0,0,0,0,0,0,0,0,0,0,0,0,0,0,0,0,0,0,7.6023,7.6024,0,7.6149,7.615,7.6152,7.6143,7.6141,7.614,7.6138,7.6261,7.6266,7.6271,0,0,0,0,0,0,0,0,0,0,0,0,0,7.5772,7.5777,7.6023,7.6024,7.6026,7.6148,7.615,7.6152,7.6144,7.6141,7.6139,7.6137,7.6259,7.6265,7.6271,0,0,0,0,0,0,0,0,0,0,0,0,0,7.5888,7.5778,7.6023,7.6037,7.6039,7.6148,7.615,7.6152,7.6144,7.6141,7.6139,7.6136,7.6257,7.6265,7.6272,7.6373,0,0,7.6295,7.6298,0,0,0,0,0,0,0,0,7.5881,7.5897,7.6033,7.6036,7.6039,7.6128,7.6107,7.6226,7.6145,7.6104,7.6138,7.6135,7.6218,7.6229,7.6258,7.6379,7.6384,7.6296,7.63,7.6303,7.6305,0,0,0,0,0,0,0,7.5873,7.5891,7.6072,7.6035,7.6039,7.6036,7.6049,7.6129,7.6175,7.6107,7.6107,7.6123,7.6219,7.6251,7.6261,7.6386,7.6295,7.6302,7.6307,7.631,7.6599,7.6602,0,0,0,0,0,0,7.5862,7.5885,7.6068,7.6076,7.5952,7.6043,7.6057,7.6102,7.6174,7.6183,7.6125,7.6122,7.624,7.6252,7.6265,7.6391,7.6303,7.631,7.6315,7.6596,7.66,7.6603,0,0,0,0,0,0,7.5857,7.5879,7.6063,7.5981,7.6004,7.605,7.61,7.6106,7.6138,7.6187,7.6195,7.6149,7.6238,7.6255,7.6348,7.6395,7.6314,7.632,7.6592,7.6597,7.6601,7.6642,0,0,0,0,0,0,7.585,7.5877,7.5917,7.5982,7.6008,7.6145,7.6103,7.611,7.6151,7.6148,7.6212,7.622,7.6237,7.6337,7.6355,7.6404,7.6326,7.6588,7.6594,7.66,7.6637,7.6648,7.6657,0,0,0,0,0,7.5841,7.5921,7.5919,7.5941,7.6059,7.6147,7.6162,7.6182,7.6155,7.6195,7.6227,7.6218,7.6387,7.6346,7.6367,7.6419,7.6585,7.6592,7.6599,7.6632,7.6645,7.6657,0,0,0,0,0,0,7.5858,7.593,7.5928,7.6032,7.6084,7.6146,7.6197,7.6195,7.6255,7.625,7.627,7.6284,7.6378,7.6407,7.6361,7.6522,7.6482,7.6494,7.65,7.6513,7.6523,7.6515,7.6332,0,0,0,0,0,7.5874,7.5941,7.6,7.6085,7.6112,7.615,7.6189,7.6201,7.6254,7.6276,7.6315,7.6366,7.6431,7.6473,7.6535,7.664,7.6655,7.6687,7.6697,7.6705,7.6715,7.6776,7.6791,7.6627,7.6627,7.6627,0,0,7.5907,7.5955,7.5995,7.609,7.6132,7.6201,7.6168,7.6241,7.6293,7.6286,7.6378,7.6408,7.6467,7.6567,7.6613,7.6594,7.6764,7.6714,7.672,7.6726,7.6785,7.68,7.6814,7.6632,7.6631,7.663,0,0,7.6004,7.6046,7.6124,7.6167,7.6232,7.6257,7.6276,7.6339,7.636,7.6452,7.645,7.651,7.6621,7.6664,7.67,7.6816,7.6811,7.6836,7.6889,7.6948,7.6961,7.6973,7.7016,7.7032,7.6845,7.6846,7.6846,0,7.6036,7.6141,7.6163,7.6239,7.6281,7.6281,7.636,7.64,7.6481,7.651,7.6488,7.663,7.6669,7.6781,7.681,7.6838,7.6861,7.6829,7.6958,7.697,7.6981,7.7023,7.7039,7.6848,7.6848,7.6848,7.6847,0,7.618,7.6253,7.6307,7.639,7.6438,7.6514,7.6547,7.6593,7.6601,7.6628,7.6723,7.6771,7.6844,7.6871,7.6877,7.6984,7.6971,7.6953,7.6914,7.6999,7.7039,7.7055,7.6852,7.6851,7.6851,7.685,0,0,7.6289,7.6385,7.6405,7.6443,7.6516,7.6572,7.6649,7.6724,7.6764,7.6819,7.6885,7.6981,7.6966,7.7007,7.7018,7.707,7.7162,7.7046,7.7048,7.7068,7.7286,7.73,7.7319,7.7158,7.7161,7.7164,7.7282,0,7.6395,7.6534,7.6557,7.6679,7.6748,7.675,7.6817,7.6869,7.6897,7.6958,7.6988,7.7057,7.703,7.7056,7.7107,7.714,7.7206,7.7132,7.722,7.7223,7.7208,7.7339,7.7354,7.7463,7.7297,7.73,7.7302,0,7.6537,7.6601,7.673,7.6797,7.6827,7.6887,7.6959,7.7017,7.7076,7.7093,7.7141,7.7147,7.7227,7.7184,7.7295,7.7243,7.7281,7.7303,7.7307,7.7318,7.7269,7.7355,7.7498,7.7515,7.7326,7.7324,7.7322,0,7.6607,7.6725,7.6819,7.6851,7.693,7.6973,7.7008,7.7064,7.7109,7.717,7.72,7.7269,7.7307,7.736,7.7385,7.7351,7.7495,7.7453,7.7512,7.7512,7.7543,7.7541,7.7696,7.7564,7.7564,7.7563,7.7563,0,7.6724,7.6804,7.6852,7.691,7.7,7.7025,7.7113,7.7146,7.7197,7.7261,7.7265,7.7324,7.7353,7.7417,7.7436,7.7526,7.7542,7.7559,7.7563,7.756,7.7558,7.7586,7.7579,7.7568,7.7567,7.7566,7.7565,0,7.6818,7.6854,7.6957,7.7024,7.7043,7.7107,7.7164,7.7221,7.7249,7.733,7.735,7.7394,7.747,7.75,7.7591,7.7605,7.771,7.7707,7.7691,7.7693,7.7751,7.7746,7.7931,7.7957,7.7805,7.7807,7.7808,0,7.6891,7.6954,7.703,7.7074,7.7111,7.7182,7.7229,7.7256,7.7304,7.7378,7.7425,7.7501,7.7564,7.7685,7.7724,7.7795,7.7795,7.7855,7.7806,7.7801,7.7799,7.7796,7.7803,7.7865,7.7866,7.7867,7.7868,0,7.7019,7.7034,7.7102,7.7177,7.7233,7.7293,7.7351,7.7386,7.7422,7.7476,7.7555,7.7604,7.77,7.7776,7.7849,7.7883,7.7883,7.7884,7.7902,7.7899,7.7889,7.7898,7.7718,7.7879,7.7878,7.7878,7.7877,7.7877,7.7106,7.7163,7.7227,7.7303,7.735,7.7405,7.7462,7.7499,7.7567,7.7649,7.766,7.7745,7.7804,7.7903,7.7941,7.8008,7.7992,7.8017,7.8024,7.803,7.8036,7.7877,7.802,7.802,7.802,7.802,7.8019,0,7.7236,7.7278,7.7348,7.7431,7.7491,7.7487,7.7552,7.7602,7.7678,7.7734,7.7797,7.7889,7.7964,7.801,7.8085,7.813,7.8131,7.8149,7.8146,7.8155,7.8044,7.8022,7.8146,7.8146,7.8146,7.8146,7.8146,7.8146,7.7311,7.7408,7.7431,7.7551,7.7592,7.7678,7.7716,7.7767,7.7812,7.7916,7.7979,7.801,7.8062,7.8142,7.821,7.8222,7.825,7.8269,7.828,7.8175,7.8162,7.815,7.813,7.8274,7.8274,7.8385,7.8386,7.8387]}]]